This is the latest recevied weather packets stored in our database for station/object W4ZHA. If no packets are shown the sender has not sent any weather packets the latest 10 day(s).
| Time | Temp. | Humidity | Pressure | Rain* | Wind** | Luminosity | Snow |
|---|---|---|---|---|---|---|---|
| 1788092376 | 23.33° C | 91% | 1022.4 hPa | 0 mm | - | 34 W/m² | - |
| 1788092071 | 23.33° C | 91% | 1022.4 hPa | 0 mm | - | 28 W/m² | - |
| 1788091766 | 22.78° C | 92% | 1022.4 hPa | 0 mm | - | 24 W/m² | - |
| 1788091462 | 22.78° C | 91% | 1022.4 hPa | 0 mm | - | 24 W/m² | - |
| 1788091158 | 22.78° C | 91% | 1022.1 hPa | 0 mm | - | 20 W/m² | - |
| 1788090854 | 22.78° C | 92% | 1022.4 hPa | 0 mm | - | 17 W/m² | - |
| 1788090549 | 22.78° C | 93% | 1022.1 hPa | 0 mm | - | 13 W/m² | - |
| 1788090246 | 22.78° C | 91% | 1022.4 hPa | 0 mm | - | 8 W/m² | - |
| 1788089946 | 22.78° C | 92% | 1022.1 hPa | 0 mm | - | 7 W/m² | - |
| 1788089641 | 22.78° C | 90% | 1021.8 hPa | 0 mm | - | 4 W/m² | - |
| 1788089336 | 22.78° C | 91% | 1022.1 hPa | 0 mm | - | 3 W/m² | - |
| 1788089032 | 22.22° C | 91% | 1021.8 hPa | 0 mm | - | 1 W/m² | - |
| 1788088728 | 22.78° C | 90% | 1021.8 hPa | 0 mm | - | 0 W/m² | - |
| 1788088424 | 22.78° C | 88% | 1021.8 hPa | 0 mm | - | 0 W/m² | - |
| 1788088124 | 22.78° C | 88% | 1021.8 hPa | 0 mm | - | 0 W/m² | - |
| 1788087820 | 22.78° C | 88% | 1021.8 hPa | 0 mm | - | 0 W/m² | - |
| 1788087519 | 22.22° C | 86% | 1021.8 hPa | 0 mm | - | 0 W/m² | - |
| 1788087216 | 22.22° C | 86% | 1021.8 hPa | 0 mm | - | 0 W/m² | - |
| 1788086911 | 22.78° C | 85% | 1021.3 hPa | 0 mm | - | 0 W/m² | - |
| 1788086608 | 22.78° C | 85% | 1021.3 hPa | 0 mm | - | 0 W/m² | - |
| 1788086307 | 22.78° C | 83% | 1021.3 hPa | 0 mm | - | 0 W/m² | - |
| 1788086003 | 22.78° C | 82% | 1021.3 hPa | 0 mm | - | 0 W/m² | - |
| 1788085701 | 22.78° C | 81% | 1021.3 hPa | 0 mm | - | 0 W/m² | - |
| 1788085397 | 22.78° C | 81% | 1021.3 hPa | 0 mm | - | 0 W/m² | - |
| 1788085093 | 22.78° C | 79% | 1021.3 hPa | 0 mm | - | 0 W/m² | - |
* Rain latest hour (hover to see other rain measurements)
** Current wind speed in m/s (hover to see current wind gust speed)